Location: LewisvilleTX
(33.0462°N, 96.9942°W)
Time: 09:44:16
(UTC+00:00)

N. Korean satellite - Visible Passes

Search period start: 30 November 2021 00:00
Search period end: 10 December 2021 00:00
Orbit: 447 x 495 km, 97.3° (Epoch: 29 November)

Date Brightness Start Highest point End Pass type
(mag) Time Alt. Az. Time Alt. Az. Time Alt. Az.
30 Nov 10.1 00:05:20 10° WSW 00:06:38 12° W 00:07:56 10° WNW visible
30 Nov 6.7 11:31:57 10° NNE 11:35:19 68° E 11:38:39 10° S visible
01 Dec 8.8 11:04:00 10° NE 11:06:48 24° E 11:09:34 10° SSE visible
01 Dec 8.2 12:38:10 10° NW 12:39:43 13° WNW 12:41:16 10° W visible
02 Dec 7.1 12:08:25 10° N 12:11:25 31° WNW 12:14:26 10° SW visible
03 Dec 6.3 11:39:37 10° N 11:43:01 89° W 11:46:22 10° SSW visible
03 Dec 9.5 23:42:58 10° SSW 23:45:46 22° W 23:48:34 10° NW visible
04 Dec 8.3 11:11:27 10° NNE 11:14:29 31° E 11:17:31 10° SSE visible
05 Dec 9.8 10:44:24 10° ENE 10:45:51 12° E 10:47:18 10° ESE visible
05 Dec 7.5 12:16:15 10° NNW 12:19:00 24° WNW 12:21:47 10° SW visible
06 Dec 6.2 11:47:15 10° N 11:50:36 66° WNW 11:53:57 10° SSW visible
06 Dec 9.7 23:51:02 10° SW 23:53:25 17° W 23:55:47 10° NW visible
07 Dec 7.7 11:18:52 10° NNE 11:22:04 40° E 11:25:17 10° S visible
08 Dec 9.5 10:51:18 10° NE 10:53:26 16° E 10:55:35 10° SE visible
08 Dec 7.8 12:24:03 10° NNW 12:26:31 19° WNW 12:28:59 10° WSW visible
09 Dec 6.5 11:54:49 10° N 11:58:06 49° WNW 12:01:23 10° SSW visible
